Regional Weather Roundup
Issued by NWS Little Rock, AR

Home | Current Version | Previous Version | Graphics & Text | Print | Product List | Glossary On
Versions: 1 2 3 4 5 6 7 8 9 10 11 12 13 14 15 16 17 18 19 20 21 22 23 24 25 26 27 28 29 30 31 32 33 34 35 36 37 38 39 40 41 42 43 44 45 46 47 48
000
ASUS44 KLZK 030205
RWRLZK

WEATHER ROUNDUP FOR ARKANSAS
NATIONAL WEATHER SERVICE LITTLE ROCK AR
900 PM CDT SUN AUG 02 2015

NOTE: "FAIR" INDICATES FEW OR NO CLOUDS BELOW 12,000 FEET WITH NO
SIGNIFICANT WEATHER AND/OR OBSTRUCTIONS TO VISIBILITY.

ARZ001-003-010-029-030300-
NORTHWEST ARKANSAS

CITY           SKY/WX    TMP DP  RH WIND       PRES   REMARKS
FAYETTEVILLE   CLEAR     76  72  87 CALM      29.92F
FORT SMITH     CLEAR     86  68  54 CALM      29.86S HX  89
HARRISON       CLEAR     78  67  68 W3        29.93F
BENTONVILLE    CLEAR     81  63  54 CALM      29.93S
ROGERS         CLEAR     79  67  66 CALM      29.94S
SILOAM SPGS    CLEAR     79  64  61 CALM      29.91R
HIGHFILL       CLEAR     78  69  73 CALM      29.92F
SPRINGDALE     CLEAR     82  66  57 CALM      29.94F HX  85
$$

ARZ004-005-016-030300-
NORTH CENTRAL ARKANSAS

CITY           SKY/WX    TMP DP  RH WIND       PRES   REMARKS
BATESVILLE     CLEAR     84  70  61 SE3       29.88S HX  88
FLIPPIN        PTCLDY    81  66  61 CALM      29.88S
MTN HOME       CLOUDY    78  70  76 CALM      29.90S
$$

ARZ040-041-030300-
WEST CENTRAL ARKANSAS

CITY           SKY/WX    TMP DP  RH WIND       PRES   REMARKS
MENA           CLEAR     81  59  47 CALM      29.92S
MOUNT IDA      CLEAR     80  62  54 CALM      29.88S
$$

ARZ009-017-025-026-028-030300-
NORTHEAST ARKANSAS

CITY           SKY/WX    TMP DP  RH WIND       PRES   REMARKS
JONESBORO      CLEAR     76  70  82 CALM      29.87F
NEWPORT        CLEAR     80  73  79 S6        29.88F
WALNUT RIDGE   CLEAR     82  68  61 S6        29.87R HX  85
BLYTHEVILLE    PTCLDY    81  74  79 SW5       29.88S HX  86
$$

ARZ022-023-033-042-044-030300-
CENTRAL ARKANSAS

CITY           SKY/WX    TMP DP  RH WIND       PRES   REMARKS
LITTLE ROCK    PTCLDY    83  68  60 S5        29.87F HX  86
N LITTLE ROCK  PTCLDY    86  69  57 S6        29.87F HX  90
JACKSONVILLE   CLEAR     85  68  55 S6        29.87F HX  88
SEARCY         CLEAR     79  71  76 CALM      29.88F
HOT SPRINGS    CLEAR     87  60  40 CALM      29.88S HX  87
RUSSELLVILLE   CLEAR     78  66  66 CALM      29.86S
$$

ARZ036-030300-
EAST ARKANSAS

CITY           SKY/WX    TMP DP  RH WIND       PRES   REMARKS
WEST MEMPHIS   CLEAR     80  73  79 CALM      29.87F
$$

ARZ050-053-066-070-073-030300-
SOUTHWEST ARKANSAS

CITY           SKY/WX    TMP DP  RH WIND       PRES   REMARKS
ARKADELPHIA    FAIR      79  73  81 CALM      29.87F
CAMDEN         CLEAR     77  68  73 CALM      29.87S
TEXARKANA      CLEAR     85  63  47 S3        29.88S HX  86
EL DORADO      CLEAR     81  67  62 CALM      29.88S
DE QUEEN       CLEAR     77  69  76 CALM      29.86S
$$

ARZ056-057-069-030300-
SOUTHEAST ARKANSAS

CITY           SKY/WX    TMP DP  RH WIND       PRES   REMARKS
PINE BLUFF     CLEAR     79  71  76 E3        29.88F
STUTTGART      CLEAR     88  66  48 MISG      29.88F HX  90
MONTICELLO     CLEAR     81  68  64 CALM      29.89S

$$




USA.gov is the U.S. government's official web portal to all federal, state and local government web resources and services.